EW8328 Weather Reports


time (UTC)temp
F
wind
direction
speed
knots
gust
knots
rain 1hr
in
rain 24hr
in
rain mn
in
humidity
%
barometer
mb
20260902072815 58 226 2.6 4.3 0.00 0.00 0.00 89 1015.3
20260902072316 58 270 2.6 4.3 0.00 0.00 0.00 89 1015.3
20260902071315 58 162 1.7 5.2 0.00 0.00 0.00 89 1015.3
20260902070815 58 154 1.7 4.3 0.00 0.00 0.00 89 1015.3
20260902070315 57 210 1.7 4.3 0.00 0.00 0.00 89 1015.3
20260902065314 57 181 1.7 4.3 0.00 0.00 0.00 89 1015.2
20260902064815 57 176 0.9 2.6 0.00 0.00 0.00 89 1015.2
20260902063814 57 209 2.6 5.2 0.00 0.00 0.00 89 1015.2
20260902063314 57 217 1.7 4.3 0.00 0.00 0.00 89 1015.1
20260902062815 57 217 2.6 5.2 0.00 0.00 0.00 90 1015.2
20260902062314 57 194 2.6 5.2 0.00 0.00 0.00 90 1015.2
20260902061814 57 194 2.6 6.1 0.00 0.00 0.00 90 1015.2
20260902061315 57 197 0.9 2.6 0.00 0.00 0.00 90 1015.3
20260902060815 57 229 2.6 5.2 0.00 0.00 0.00 90 1015.2
20260902055815 57 183 3.5 6.1 0.00 0.00 0.00 90 1015.0
20260902055315 57 184 1.7 4.3 0.00 0.00 0.00 90 1015.0
20260902054815 57 181 0.9 2.6 0.00 0.00 0.00 90 1014.9
20260902054314 57 135 0.9 1.7 0.00 0.00 0.00 90 1014.9
20260902053815 57 135 0.0 1.7 0.00 0.00 0.00 90 1014.9
20260902053315 57 135 0.0 1.7 0.00 0.00 0.00 90 1015.0
20260902052815 57 135 0.0 0.9 0.00 0.00 0.00 90 1015.0
20260902052314 57 135 0.9 1.7 0.00 0.00 0.00 89 1015.0
20260902051815 57 135 0.0 1.7 0.00 0.00 0.00 89 1014.9
20260902051314 57 135 0.9 2.6 0.00 0.00 0.00 89 1014.9
20260902050815 57 135 0.9 1.7 0.00 0.00 0.00 89 1015.0
20260902050316 57 135 0.9 1.7 0.00 0.00 0.00 89 1014.9
20260902045814 58 159 0.9 1.7 0.00 0.00 0.00 89 1014.9
20260902045315 58 271 0.9 1.7 0.00 0.00 0.00 89 1014.9
20260902044814 58 271 0.9 0.9 0.00 0.00 0.00 89 1014.9
20260902043315 58 271 0.0 0.9 0.00 0.00 0.00 89 1015.0
20260902042815 58 271 0.0 0.9 0.00 0.00 0.00 89 1015.0
20260902042314 58 271 0.0 1.7 0.00 0.00 0.00 89 1015.0
20260902041815 58 271 0.0 1.7 0.00 0.00 0.00 88 1015.0
20260902041314 58 271 0.9 2.6 0.00 0.00 0.00 88 1015.0
20260902040814 58 204 0.9 2.6 0.00 0.00 0.00 88 1015.0
20260902035815 58 220 0.0 1.7 0.00 0.00 0.00 88 1015.0
20260902035314 58 220 0.9 1.7 0.00 0.00 0.00 88 1015.0
20260902034815 58 220 0.9 1.7 0.00 0.00 0.00 88 1015.0
20260902034315 58 220 0.9 2.6 0.00 0.00 0.00 88 1014.9
20260902033814 58 200 0.9 1.7 0.00 0.00 0.00 88 1015.0
20260902032815 58 200 0.0 0.9 0.00 0.00 0.00 89 1015.0
20260902032314 58 200 1.7 2.6 0.00 0.00 0.00 89 1015.0
20260902031815 57 212 1.7 2.6 0.00 0.00 0.00 89 1015.0
20260902031314 57 211 0.9 1.7 0.00 0.00 0.00 89 1015.0
20260902030815 57 211 0.9 2.6 0.00 0.00 0.00 89 1015.0
20260902030314 57 236 0.9 1.7 0.00 0.00 0.00 88 1015.0
20260902025814 57 236 0.0 0.9 0.00 0.00 0.00 88 1015.1
20260902025315 57 236 0.0 1.7 0.00 0.00 0.00 88 1015.1
20260902024815 57 236 0.0 1.7 0.00 0.00 0.00 88 1015.3
20260902024315 57 236 0.9 0.9 0.00 0.00 0.00 87 1015.4
20260902023814 57 236 1.7 2.6 0.00 0.00 0.00 87 1015.4
20260902023315 57 236 0.9 2.6 0.00 0.00 0.00 87 1015.4
20260902022814 57 271 0.9 2.6 0.00 0.00 0.00 87 1015.4
20260902022314 57 245 0.9 2.6 0.00 0.00 0.00 87 1015.5
20260902021814 58 245 1.7 2.6 0.00 0.00 0.00 86 1015.5
20260902021314 58 263 0.9 2.6 0.00 0.00 0.00 86 1015.5
20260902020815 58 257 1.7 5.2 0.00 0.00 0.00 85 1015.6
20260902020314 58 212 2.6 6.1 0.00 0.00 0.00 85 1015.7
20260902015815 58 220 3.5 5.2 0.00 0.00 0.00 85 1015.7
20260902015314 58 197 1.7 2.6 0.00 0.00 0.00 85 1015.6
20260902014315 58 207 1.7 2.6 0.00 0.00 0.00 85 1015.6
20260902013814 59 206 1.7 2.6 0.00 0.00 0.00 85 1015.6
20260902013314 59 206 0.0 1.7 0.00 0.00 0.00 85 1015.7
20260902012814 58 206 0.0 1.7 0.00 0.00 0.00 85 1015.7
20260902012314 58 206 0.9 2.6 0.00 0.00 0.00 85 1015.6
20260902011815 58 153 2.6 7.0 0.00 0.00 0.00 85 1015.7
20260902011316 58 21 0.0 1.7 0.00 0.00 0.00 85 1015.7
20260902010815 58 27 1.7 2.6 0.00 0.00 0.00 84 1015.7
20260902010314 58 106 0.9 1.7 0.00 0.00 0.00 84 1015.7
20260902005816 59 213 1.7 5.2 0.00 0.00 0.00 84 1015.6
20260902004815 59 225 0.0 1.7 0.00 0.00 0.00 83 1015.6
20260902004315 59 225 0.9 1.7 0.00 0.00 0.00 83 1015.8
20260902003814 59 225 0.0 1.7 0.00 0.00 0.00 83 1015.7
20260902003314 59 225 2.6 4.3 0.00 0.00 0.00 83 1015.8
20260902002815 59 240 1.7 4.3 0.00 0.00 0.00 83 1015.8
20260902001814 59 221 2.6 19.1 0.00 0.00 0.00 83 1015.8
20260902000815 59 215 2.6 5.2 0.00 0.00 0.00 83 1015.9
20260902000314 59 263 1.7 4.3 0.00 0.00 0.00 83 1015.9
20260901235814 59 230 2.6 6.1 0.00 0.00 0.00 82 1015.9
20260901235314 59 249 4.3 5.2 0.00 0.00 0.00 82 1015.9
20260901234814 59 251 4.3 6.1 0.00 0.00 0.00 82 1016.0
20260901234314 59 237 2.6 7.0 0.00 0.00 0.00 82 1015.9
20260901233815 59 222 4.3 7.8 0.00 0.00 0.00 82 1015.8
20260901233313 59 231 2.6 7.0 0.00 0.00 0.00 82 1015.8
20260901232814 59 219 5.2 7.0 0.00 0.00 0.00 82 1015.8
20260901232314 59 260 3.5 10.4 0.00 0.00 0.00 82 1015.8
20260901231815 59 229 3.5 6.1 0.00 0.00 0.00 82 1015.9
20260901231314 60 248 2.6 5.2 0.00 0.00 0.00 82 1015.9
20260901230855 60 243 2.6 6.1 0.00 0.00 0.00 81 1016.0
20260901230314 60 241 3.5 6.1 0.00 0.00 0.00 81 1016.0
20260901225814 60 222 2.6 6.1 0.00 0.00 0.00 81 1016.0
20260901225314 60 250 3.5 7.8 0.00 0.00 0.00 81 1016.1
20260901224815 60 234 2.6 6.1 0.00 0.00 0.00 81 1016.1
20260901224314 60 226 2.6 6.1 0.00 0.00 0.00 81 1016.1
20260901222814 60 216 3.5 6.1 0.00 0.00 0.00 80 1016.2
20260901222314 60 259 2.6 4.3 0.00 0.00 0.00 80 1016.2
20260901221814 60 261 1.7 2.6 0.00 0.00 0.00 80 1016.2
20260901221314 60 258 2.6 5.2 0.00 0.00 0.00 80 1016.2
20260901220814 60 280 1.7 6.1 0.00 0.00 0.00 79 1016.2
20260901215314 60 247 1.7 2.6 0.00 0.00 0.00 80 1016.2
20260901214314 61 216 2.6 5.2 0.00 0.00 0.00 80 1016.2
20260901213814 61 219 3.5 6.1 0.00 0.00 0.00 81 1016.2
20260901213314 61 232 1.7 6.1 0.00 0.00 0.00 81 1016.2
20260901212816 61 204 1.7 5.2 0.00 0.00 0.00 82 1016.2
20260901212314 61 207 2.6 6.1 0.00 0.00 0.00 82 1016.2
20260901211814 61 185 2.6 4.3 0.00 0.00 0.00 82 1016.2
20260901211314 61 168 0.9 2.6 0.00 0.00 0.00 83 1016.3
20260901210315 61 259 1.7 2.6 0.00 0.00 0.00 82 1016.3
20260901205815 61 269 0.9 2.6 0.00 0.00 0.00 82 1016.4
20260901205314 61 249 1.7 7.0 0.00 0.00 0.00 82 1016.3
20260901204814 61 247 2.6 6.1 0.00 0.00 0.00 83 1016.3
20260901204315 61 246 1.7 5.2 0.00 0.00 0.00 83 1016.3
20260901203813 61 213 2.6 5.2 0.00 0.00 0.00 83 1016.3
20260901203314 61 214 2.6 5.2 0.00 0.00 0.00 83 1016.3
20260901202815 61 214 1.7 4.3 0.00 0.00 0.00 83 1016.3
20260901202314 61 233 1.7 4.3 0.00 0.00 0.00 83 1016.2
20260901201815 61 240 1.7 6.1 0.00 0.00 0.00 83 1016.2
20260901201314 61 252 4.3 8.7 0.00 0.00 0.00 83 1016.2
20260901200815 61 251 4.3 6.1 0.00 0.00 0.00 83 1016.2
20260901200314 61 249 2.6 5.2 0.00 0.00 0.00 83 1016.2
20260901195814 62 232 4.3 7.8 0.00 0.00 0.00 82 1016.1
20260901195314 62 248 3.5 6.1 0.00 0.00 0.00 82 1016.0
20260901194814 62 218 2.6 7.0 0.00 0.00 0.00 82 1016.1
20260901194314 62 236 2.6 6.1 0.00 0.00 0.00 82 1016.1
20260901193814 62 253 4.3 7.0 0.00 0.00 0.00 82 1016.0
20260901193314 62 230 1.7 5.2 0.00 0.00 0.00 82 1016.0
20260901192314 62 241 4.3 7.0 0.00 0.00 0.00 82 1016.0
20260901191814 62 241 4.3 7.0 0.00 0.00 0.00 81 1015.9
20260901191314 62 249 3.5 6.1 0.00 0.00 0.00 81 1015.9
20260901190814 62 244 3.5 6.1 0.00 0.00 0.00 80 1015.9
20260901190314 62 244 4.3 7.0 0.00 0.00 0.00 80 1015.9
20260901185814 62 251 4.3 10.4 0.00 0.00 0.00 80 1015.9
20260901184814 62 239 4.3 7.8 0.00 0.00 0.00 79 1015.9
20260901184314 63 243 3.5 10.4 0.00 0.00 0.00 79 1015.9
20260901183814 63 245 5.2 7.8 0.00 0.00 0.00 78 1015.9
20260901181814 63 251 3.5 7.8 0.00 0.00 0.00 78 1016.0
20260901181314 63 253 3.5 7.0 0.00 0.00 0.00 78 1016.0
20260901180814 63 256 4.3 10.4 0.00 0.00 0.00 77 1016.0
20260901175814 63 247 5.2 8.7 0.00 0.00 0.00 77 1016.0
20260901174814 64 245 4.3 7.8 0.00 0.00 0.00 76 1015.9
20260901174314 64 254 3.5 6.1 0.00 0.00 0.00 75 1015.8
20260901173814 64 254 5.2 10.4 0.00 0.00 0.00 74 1015.8
20260901173314 64 251 4.3 10.4 0.00 0.00 0.00 74 1015.9
20260901172814 64 239 4.3 11.3 0.00 0.00 0.00 74 1015.9
20260901172314 64 253 4.3 7.8 0.00 0.00 0.00 73 1015.8
20260901171814 64 250 5.2 12.2 0.00 0.00 0.00 73 1015.9
20260901170814 63 251 5.2 10.4 0.00 0.00 0.00 73 1015.9
20260901170313 63 242 4.3 8.7 0.00 0.00 0.00 73 1015.9
20260901165814 63 242 6.1 10.4 0.00 0.00 0.00 73 1015.8
20260901165313 64 245 7.8 13.0 0.00 0.00 0.00 73 1015.8
20260901164814 64 261 5.2 11.3 0.00 0.00 0.00 73 1016.0
20260901163314 64 248 6.1 10.4 0.00 0.00 0.00 72 1015.8
20260901162814 64 245 7.0 12.2 0.00 0.00 0.00 72 1015.8
20260901162314 64 248 7.0 15.6 0.00 0.00 0.00 71 1015.9
20260901161814 64 252 7.0 10.4 0.00 0.00 0.00 71 1016.2
20260901161314 64 241 9.6 18.2 0.00 0.00 0.00 72 1016.0
20260901160814 64 242 7.8 15.6 0.00 0.00 0.00 71 1016.2
20260901160314 65 242 7.0 13.0 0.00 0.00 0.00 71 1016.1
20260901155815 65 242 7.0 11.3 0.00 0.00 0.00 71 1015.9
20260901155313 65 246 6.1 13.9 0.00 0.00 0.00 70 1015.8
20260901154814 65 247 7.0 13.0 0.00 0.00 0.00 69 1015.9
20260901154314 65 248 6.1 13.9 0.00 0.00 0.00 68 1016.0
20260901153814 65 252 6.1 12.2 0.00 0.00 0.00 70 1016.0
20260901153314 64 252 6.1 12.2 0.00 0.00 0.00 71 1016.1
20260901152814 64 253 7.0 13.0 0.00 0.00 0.00 70 1016.1
20260901151813 65 239 5.2 11.3 0.00 0.00 0.00 69 1016.1
20260901150814 64 238 7.8 14.8 0.00 0.00 0.00 70 1015.9
20260901150314 64 233 7.0 12.2 0.00 0.00 0.00 71 1015.9
20260901145813 64 247 4.3 10.4 0.00 0.00 0.00 72 1015.9
20260901144813 64 254 4.3 10.4 0.00 0.00 0.00 70 1016.0
20260901143314 65 245 5.2 10.4 0.00 0.00 0.00 69 1016.2
20260901142813 65 247 5.2 12.2 0.00 0.00 0.00 70 1016.2
20260901141813 65 243 5.2 12.2 0.00 0.00 0.00 71 1016.3
20260901141314 65 238 5.2 11.3 0.00 0.00 0.00 70 1016.2
20260901140814 65 247 5.2 10.4 0.00 0.00 0.00 70 1016.2
20260901140314 65 249 6.1 10.4 0.00 0.00 0.00 70 1016.1
20260901135813 65 259 6.1 13.0 0.00 0.00 0.00 70 1016.2
20260901135314 65 243 5.2 13.0 0.00 0.00 0.00 69 1016.0
20260901134814 66 248 7.0 12.2 0.00 0.00 0.00 67 1016.0
20260901134314 66 239 6.1 11.3 0.00 0.00 0.00 67 1016.1
20260901132314 66 229 5.2 10.4 0.00 0.00 0.00 67 1016.1
20260901131814 65 231 5.2 19.1 0.00 0.00 0.00 67 1016.2
20260901131314 66 229 7.8 17.4 0.00 0.00 0.00 65 1016.2
20260901130813 65 215 5.2 14.8 0.00 0.00 0.00 68 1016.2
20260901130314 65 257 6.1 10.4 0.00 0.00 0.00 68 1016.2
20260901125313 65 242 6.1 10.4 0.00 0.00 0.00 68 1016.2
20260901124813 65 218 5.2 10.4 0.00 0.00 0.00 68 1016.2
20260901124314 65 226 5.2 15.6 0.00 0.00 0.00 69 1016.2
20260901123814 65 220 6.1 15.6 0.00 0.00 0.00 68 1016.3
20260901123313 65 222 6.1 13.9 0.00 0.00 0.00 68 1016.3
20260901122814 65 217 4.3 10.4 0.00 0.00 0.00 69 1016.3
20260901122314 64 235 4.3 11.3 0.00 0.00 0.00 70 1016.3
20260901121814 64 258 5.2 10.4 0.00 0.00 0.00 70 1016.4
20260901121314 64 235 5.2 10.4 0.00 0.00 0.00 70 1016.4
20260901120814 64 234 3.5 7.8 0.00 0.00 0.00 70 1016.3
20260901120313 64 229 4.3 10.4 0.00 0.00 0.00 71 1016.4
20260901115814 63 233 5.2 10.4 0.00 0.00 0.00 71 1016.5
20260901114313 63 247 6.1 10.4 0.00 0.00 0.00 71 1016.4
20260901113814 63 254 4.3 8.7 0.00 0.00 0.00 71 1016.4
20260901113313 63 232 5.2 8.7 0.00 0.00 0.00 71 1016.5
20260901112814 63 222 6.1 12.2 0.00 0.00 0.00 70 1016.4
20260901112313 63 218 6.1 11.3 0.00 0.00 0.00 70 1016.4
20260901111313 64 220 6.1 11.3 0.00 0.00 0.00 68 1016.3
20260901110814 64 239 5.2 10.4 0.00 0.00 0.00 69 1016.3
20260901110314 64 225 5.2 10.4 0.00 0.00 0.00 70 1016.3
20260901105814 63 249 6.1 11.3 0.00 0.00 0.00 69 1016.4
20260901105314 63 242 6.1 13.0 0.00 0.00 0.00 69 1016.3
20260901104813 63 236 6.1 11.3 0.00 0.00 0.00 69 1016.4
20260901104313 63 223 5.2 10.4 0.00 0.00 0.00 70 1016.4
20260901103814 63 252 6.1 11.3 0.00 0.00 0.00 71 1016.3
20260901103314 63 238 5.2 10.4 0.00 0.00 0.00 70 1016.4
20260901102814 63 229 6.1 12.2 0.00 0.00 0.00 69 1016.5
20260901102314 63 242 4.3 10.4 0.00 0.00 0.00 69 1016.6
20260901101813 63 232 5.2 13.0 0.00 0.00 0.00 69 1016.6
20260901101313 62 249 6.1 13.0 0.00 0.00 0.00 69 1016.5
20260901100814 62 250 6.1 11.3 0.00 0.00 0.00 69 1016.6
20260901100313 63 229 6.1 14.8 0.00 0.00 0.00 68 1016.6
20260901094814 63 221 5.2 12.2 0.00 0.00 0.00 68 1016.4
20260901094313 63 212 7.0 14.8 0.00 0.00 0.00 68 1016.4
20260901093814 63 225 5.2 10.4 0.00 0.00 0.00 70 1016.4
20260901093314 62 224 7.8 15.6 0.00 0.00 0.00 69 1016.4
20260901092814 62 225 7.0 13.0 0.00 0.00 0.00 68 1016.4
20260901092313 62 231 6.1 17.4 0.00 0.00 0.00 70 1016.4
20260901091814 62 236 7.0 10.4 0.00 0.00 0.00 69 1016.5
20260901091314 62 234 6.1 13.0 0.00 0.00 0.00 72 1016.4
20260901090314 62 226 5.2 8.7 0.00 0.00 0.00 74 1016.5
20260901085814 61 233 3.5 7.8 0.00 0.00 0.00 75 1016.5
20260901085313 61 218 5.2 10.4 0.00 0.00 0.00 75 1016.5
20260901084815 60 243 4.3 8.7 0.00 0.00 0.00 78 1016.4
20260901084314 60 235 5.2 10.4 0.00 0.00 0.00 79 1016.3
20260901083813 60 243 4.3 10.4 0.00 0.00 0.00 80 1016.3
20260901082813 59 212 4.3 7.0 0.00 0.00 0.00 81 1016.4
20260901082313 59 217 5.2 10.4 0.00 0.00 0.00 81 1016.5
20260901081814 59 241 6.1 12.2 0.00 0.00 0.00 80 1016.4
20260901081313 59 223 5.2 11.3 0.00 0.00 0.00 80 1016.4
20260901075815 59 233 4.3 7.8 0.00 0.00 0.00 82 1016.3
20260901075313 59 235 4.3 11.3 0.00 0.00 0.00 83 1016.2
20260901074813 59 248 4.3 7.8 0.00 0.00 0.00 84 1016.2
20260901074313 58 213 4.3 10.4 0.00 0.00 0.00 85 1016.2
20260901073814 58 253 5.2 10.4 0.00 0.00 0.00 85 1016.1